Regional Weather Roundup
Issued by NWS

Home | Current Version | Previous Version | Text Only | Print | Product List | Glossary On
Versions: 1 2 3 4 5 6 7 8 9 10 11 12 13 14 15 16 17 18 19 20 21 22 23 24 25 26 27 28 29 30 31 32 33 34 35 36 37 38 39 40 41 42 43 44 45 46 47 48 49 50
000
ASUS43 KDMX 021507
RWRIA

WEATHER ROUNDUP FOR IOWA
NATIONAL WEATHER SERVICE DES MOINES IA
900 AM CST MON MAR 02 2015

NOTE: "FAIR" INDICATES FEW OR NO CLOUDS BELOW 12,000 FEET WITH NO
SIGNIFICANT WEATHER AND/OR OBSTRUCTIONS TO VISIBILITY.

* - THESE STATIONS ARE NOT NWS STATIONS...THUS NOT UNDER NWS
QUALITY CONTROL.  THEY ALSO DO NOT REPORT WEATHER SUCH
AS PRECIPITATION OR FOG.

IAZ001>003-012>014-020>022-031>034-043>046-021600-
   NORTHWEST IOWA

CITY           SKY/WX    TMP DP  RH WIND       PRES   REMARKS
CARROLL *      SUNNY     19  16  86 CALM      30.49S
CHEROKEE *     CLOUDY    10   9  92 CALM      30.48S
DENISON *        N/A     19  18  93 E3        30.47R
LE MARS *      CLOUDY    21  18  86 SE9       30.47S WCI  11
ORANGE CITY *  MOSUNNY   19  14  79 CALM      30.44S
SHELDON *      SUNNY     18  16  93 S13       30.44S WCI   4
SIOUX CITY     CLOUDY    21  16  81 SE9       30.46F WCI  11
SPENCER        SUNNY     14   9  80 S5        30.47R WCI   6
STORM LAKE *   PTSUNNY   18  14  86 SE7       30.46F WCI   8
$$

IAZ055>058-069>071-079>083-090>094-021600-
   SOUTHWEST IOWA

CITY           SKY/WX    TMP DP  RH WIND       PRES   REMARKS
ATLANTIC *     MOSUNNY   21  18  86 CALM      30.49R
AUDUBON *      SUNNY     19  18  93 CALM      30.48F
CLARINDA *     SUNNY     28  18  64 E8        30.50F WCI  20
COUNCIL BLFS * MOSUNNY   25  18  74 SE10      30.45S WCI  15
CRESTON *      SUNNY     23  18  80 E12       30.48S WCI  12
HARLAN  *      CLOUDY    23  21  93 VRB5      30.51S WCI  17
LAMONI         MOSUNNY   25  17  72 E7        30.49F WCI  17
RED OAK *      PTSUNNY   27  18  69 E6        30.48S WCI  20
SHENANDOAH *   MOSUNNY   28  18  64 E12       30.49F WCI  18
$$

IAZ047>049-059>061-072>074-084-021600-
   CENTRAL IOWA

CITY           SKY/WX    TMP DP  RH WIND       PRES   REMARKS
AMES           SUNNY     17  12  80 CALM      30.52R
ANKENY *       SUNNY     19  16  86 CALM      30.54R
CHARITON *     SUNNY     23  14  68 E8        30.50F WCI  14
DES MOINES     CLOUDY    24  11  57 E7        30.52S WCI  16
GRINNELL*      MOSUNNY   16  14  93 NW3       30.52S
KNOXVILLE *    SUNNY     23  12  63 E6        30.50F WCI  16
MARSHALLTOWN   SUNNY      8   7  95 CALM      30.51R
PELLA *        SUNNY     27  18  69 CALM      30.54S
PERRY *          N/A     21  18  86 CALM      30.51S
$$

IAZ004>006-015-016-023>025-035-036-021600-
   NORTH CENTRAL IOWA

CITY           SKY/WX    TMP DP  RH WIND       PRES   REMARKS
ALGONA *       SUNNY     12  10  92 CALM      30.49S
CLARION *      SUNNY     10  10 100 CALM      30.51R
ESTHERVILLE    SUNNY     12  10  92 S3        30.46R
FORT DODGE *   MOSUNNY   12   9  85 CALM      30.51R
MASON CITY     MOSUNNY    7   6  96 CALM      30.50R
FOREST CITY *  LGT SNOW   9   3  78 CALM      30.49R
IOWA FALLS *     N/A      7   3  85 CALM      30.51S
$$

IAZ007>011-017>019-026>030-037>042-050>054-066-021600-
   NORTHEAST IOWA

CITY           SKY/WX    TMP DP  RH WIND       PRES   REMARKS
CEDAR RAPIDS   SUNNY     12   7  80 N6        30.51F WCI   3
CHARLES CITY * SUNNY      7   5  92 CALM      30.50S
CLINTON *      SUNNY      5   1  85 CALM      30.56R
DECORAH *      SUNNY     10   7  85 CALM      30.49R
DUBUQUE        SUNNY      8   4  83 CALM      30.50S
MONTICELLO *   SUNNY     10   9  92 CALM      30.53R
OELWEIN *      SUNNY      3   0  85 CALM      30.52R
WATERLOO       FLURRIES   5   2  87 N3        30.53S
$$

IAZ064-065-067-068-078-021600-
   EAST CENTRAL IOWA

CITY           SKY/WX    TMP DP  RH WIND       PRES   REMARKS
DAVENPORT      SUNNY     11   6  81 NW5       30.53S WCI   3
IOWA CITY      SUNNY     19  12  74 N8        30.55S WCI   9
MT. PLEASANT * SUNNY     18  12  79 N3        30.54F
MUSCATINE *    SUNNY     19  12  73 NW3       30.55F
QUAD CITIES    SUNNY     22  11  62 N6        30.53F WCI  14
$$

IAZ062-063-075>077-085>089-095>099-021600-
   SOUTHEAST IOWA

CITY           SKY/WX    TMP DP  RH WIND       PRES   REMARKS
BURLINGTON     SUNNY     22  13  68 CALM      30.53F
FAIRFIELD *    SUNNY     19  12  73 CALM      30.54R
FORT MADISON * SUNNY     19  12  73 N3        30.54S
KEOKUK *       SUNNY     23  16  74 N5        30.54S WCI  17
OSKALOOSA *      N/A     21  14  73 CALM      30.54R
CENTERVILLE *  SUNNY     25  18  74 NE8       30.53S WCI  16
OTTUMWA        SUNNY     23  15  71 NE3       30.53S
WASHINGTON *   SUNNY     21  18  86 NW6       30.54S WCI  14
$$

ABBREVIATIONS USED IN REMARKS
   TC - TEMPERATURES IN CELSIUS
  WCI - WIND CHILL INDEX
   HX - HEAT INDEX
  VSB - VISIBILITY
$$



USA.gov is the U.S. government's official web portal to all federal, state and local government web resources and services.